Location: Cottonwood Creek
(38.1845°N, 100.1435°W)
Time: 19:03:46
(UTC+00:00)

Daily predictions for brighter satellites

Satellite Brightness Start Highest point End
(mag) Time Altitude Azimuth Time Altitude Azimuth Time Altitude Azimuth
SJ-12 4.0 12:01:11 10° N 12:05:14 52° WNW 12:09:14 10° SSW
CBERS 1 LM4 rocket 4.3 12:01:06 10° N 12:06:03 76° WNW 12:11:12 10° SSW
SJ 16-02 1.2 12:02:22 10° SSW 12:06:44 72° WNW 12:11:07 10° NNE
SKYMED 3 4.4 12:04:32 10° S 12:08:52 75° WSW 12:12:17 16° NNW
USA 215 4.3 12:03:25 10° E 12:09:17 37° NNE 12:14:28 13° NNW
H-2A R/B 4.0 12:13:51 24° SW 12:13:51 24° SW 12:15:42 10° SW
Meteor 2-15 Rocket 4.4 12:07:35 10° N 12:13:41 85° E 12:19:44 10° S
DELTA 2 R/B (1) 3.5 12:12:08 31° WNW 12:14:54 79° N 12:20:28 10° E
Cosmos 1515 Rocket 3.4 12:10:59 11° N 12:15:10 77° W 12:19:28 10° S
Cosmos 2228 Rocket 4.5 12:16:26 10° N 12:20:42 41° ENE 12:25:00 10° SSE
Meteor 1-27 Rocket 3.8 12:15:19 10° N 12:21:03 89° E 12:26:52 10° S
Meteor 1-31 Rocket 3.1 12:19:55 10° N 12:23:38 42° WNW 12:27:20 10° SW
SL-27 R/B 2.8 12:27:43 26° NW 12:29:14 44° WSW 12:32:33 10° S
Cosmos 1500 Rocket 3.5 12:25:23 10° SSW 12:29:49 66° W 12:34:17 10° N
Sich 1 3.9 12:26:13 10° S 12:30:21 51° E 12:34:30 10° NNE
SL-4 R/B 1.5 12:28:17 18° WSW 12:30:46 72° NW 12:34:26 10° NE
SKYMED 2 4.1 12:28:49 10° SSW 12:32:52 38° W 12:36:30 12° NNW
Cosmos 2297 Rocket 4.0 12:28:39 10° N 12:33:30 28° ENE 12:38:20 10° ESE
CZ-4B R/B 4.2 12:32:08 10° ESE 12:34:11 16° ENE 12:36:13 10° NNE
NOAA 12 4.5 12:29:28 10° NNE 12:34:43 67° ESE 12:39:54 10° S
Cosmos 1939 Rocket 3.7 12:32:13 10° NNE 12:36:02 51° E 12:39:46 10° S
Nadezhda 4 Rocket 4.0 12:30:19 10° SSW 12:36:19 55° W 12:42:26 10° N
Cosmos 1538 Rocket 4.1 12:34:34 10° NNW 12:39:49 80° ENE 12:44:58 10° SSE
CZ-2C R/B 3.2 12:35:14 10° SSW 12:40:18 38° W 12:45:18 10° NNW
Meteor 1-25 Rocket 4.2 12:34:53 10° S 12:40:30 89° W 12:46:06 10° N
ADEOS 3.6 12:36:15 10° N 12:41:23 58° WNW 12:46:29 10° SSW
H-2A R/B 3.0 12:37:44 10° SSE 12:41:52 50° ENE 12:46:08 10° N
Cosmos 1805 Rocket 3.5 12:38:01 10° S 12:42:23 85° W 12:46:47 10° N
H-2A R/B (2) 4.3 12:37:47 10° SW 12:42:55 46° SSE 13:13:04 10° E
BREEZE-M DEB 3.6 12:44:32 14° W 12:47:09 54° NNW 12:55:59 10° NE
Cosmos 1602 3.6 12:46:02 10° SSW 12:49:47 61° W 12:53:34 10° N
Cosmos 1428 Rocket 4.4 12:45:47 10° S 12:51:55 83° W 12:58:04 10° N
Cosmos 1092 Rocket 4.0 12:50:16 10° SSW 12:56:28 66° W 13:02:46 10° N
Meteor PRIRODA 3.9 12:55:41 10° N 12:59:08 42° WNW 13:02:34 10° SW
Cosmos 1500 3.1 12:56:59 10° SSW 13:00:46 73° W 13:04:33 10° N
Meteor 2-21 4.5 12:55:13 10° S 13:01:24 84° W 13:07:35 10° N
AQUARIUS 4.5 12:57:40 10° NNE 13:02:10 72° ESE 13:06:38 10° S
H-2A R/B 3.5 12:58:25 10° NNE 13:03:04 41° E 13:07:45 10° SSE
Cosmos 1656 3.6 12:57:40 10° SSW 13:03:05 90° ESE 13:08:33 10° NNE
IRAS Rocket 4.3 12:57:53 10° S 13:03:19 62° WSW 13:08:46 10° NNW
Cosmos 158 Rocket 4.1 13:00:40 10° NNW 13:05:47 59° WSW 13:10:59 10° S
Cosmos 1898 Rocket 3.9 13:01:39 10° S 13:06:57 74° ESE 13:12:16 10° NNE
USA 32 4.2 13:03:13 10° NNW 13:08:19 54° W 13:13:24 10° SSW
CZ-2C R/B 3.3 13:04:20 10° N 13:09:03 45° WNW 13:14:01 10° SW
Cosmos 2227 Rocket 3.5 13:04:36 10° N 13:09:53 39° ENE 13:15:07 10° SE
Okean O Rocket 4.2 13:10:01 10° NE 13:13:42 26° E 13:17:21 10° SSE
Cosmos 923 Rocket 4.4 13:09:32 10° NNW 13:14:54 71° ENE 13:20:12 10° SSE
FengYun 1-2 T 4.2 13:09:47 10° N 13:15:13 66° WNW 13:20:38 10° SSW
Meteor 2-4 Rocket 4.5 13:10:00 10° N 13:15:50 59° E 13:21:30 10° SSE
Cosmos 1515 4.4 13:12:35 10° NNW 13:16:00 32° W 13:19:24 10° SSW
Lacrosse 5 1.9 13:11:21 10° SW 13:16:26 81° NW 13:21:34 10° NE
PSLV R/B 4.1 13:12:33 10° NNE 13:16:34 77° ESE 13:20:36 10° S
Meteor 1-18 Rocket 4.4 13:12:39 10° N 13:18:30 87° E 13:24:10 10° S
Centaur D-1A AC-35 4.5 13:16:45 10° SW 13:19:28 19° S 13:23:14 10° ESE
NOSS 8 (F) 4.4 13:16:12 10° SSW 13:20:05 86° WNW 13:23:13 10° NNE
FALCON 9 R/B 4.2 13:06:22 10° WNW 13:24:38 43° SW 13:30:14 10° SSE
Lacrosse 5 rocket 2.7 23:44:14 10° NNW 23:47:10 20° NE 23:50:13 10° E
GPS 2-04 Rocket1 4.4 23:44:09 10° W 23:47:53 34° SSW 23:51:38 10° SE
SL-08 R/B 4.2 23:43:24 10° N 23:47:56 51° WNW 23:52:22 10° SSW
Cosmos 1428 Rocket 4.5 23:42:25 10° N 23:48:34 74° E 23:54:45 10° SSE
NOAA 12 4.2 23:47:42 10° SSE 23:53:01 87° E 23:58:22 10° NNW
Cosmos 1812 2.7 23:50:50 10° S 23:54:37 61° E 23:58:26 10° NNE
